Cumberland, WV

8:44 PM EDT on August 18, 2017 (GMT -0400)
Greater Cumberland Regional

Weather History for KCBE - August, 2014

Change the Weather History Date:

Thursday, August 21, 2014

  Actual Average (KMRB) Record (KMRB)
Temperature  
Mean Temperature 78 °F -  
Max Temperature 89 °F 80 °F 99 °F (1936)
Min Temperature 68 °F 59 °F 45 °F (1929)
Cooling Degree Days 14    
Growing Degree Days 28 (Base 50)    
Moisture  
Dew Point 66 °F    
Average Humidity 75    
Maximum Humidity 94    
Minimum Humidity 40    
Precipitation  
Precipitation 0.00 in - - ()
Sea Level Pressure  
Sea Level Pressure 30.07 in    
Wind  
Wind Speed 2 mph (SSW)    
Max Wind Speed 14 mph    
Max Gust Speed 20 mph    
Visibility 8 miles    
Events      
Averages and records for this station are not official NWS values.
T = Trace of Precipitation, MM = Missing Value Source: NWS Daily Summary

Daily Weather History Graph

Daily Weather History Graph

Search for Another Location

Airport or City:

Trip Planner

Search our weather history database for the weather conditions in past years. The results will help you decide how hot, cold, wet, or windy it might be!

Date:

Astronomy

Aug. 21, 2014 Rise Set
Actual Time 6:32 AM EDT 8:02 PM EDT
Civil Twilight 6:04 AM EDT 8:30 PM EDT
Nautical Twilight 5:30 AM EDT 9:04 PM EDT
Astronomical Twilight 4:54 AM EDT 9:40 PM EDT
Moon 3:02 AM EDT (8/21) 5:29 PM EDT (8/21)
Length of Visible Light 14h 26m
Length of Day
13h 29m
Waning Crescent, 13% of the Moon is Illuminated
Aug 21
Waning Crescent
Aug 25
New
Sep 2
First Quarter
Sep 8
Full
Sep 15
Last Quarter

Hourly Weather History & Observations

Time (EDT) Temp. Heat Index Dew Point Humidity Pressure Visibility Wind Dir Wind Speed Gust Speed Precip Events Conditions
12:15 AM 71.6 °F - 68.0 °F 88% 30.05 in 10.0 mi Calm Calm - N/A   Clear
12:35 AM 69.8 °F - 68.0 °F 94% 30.05 in 10.0 mi Calm Calm - N/A   Scattered Clouds
12:55 AM 69.8 °F - 68.0 °F 94% 30.05 in 10.0 mi Calm Calm - N/A   Scattered Clouds
1:15 AM 69.8 °F - 68.0 °F 94% 30.05 in 7.0 mi Calm Calm - N/A   Scattered Clouds
1:35 AM 69.8 °F - 66.2 °F 88% 30.05 in 7.0 mi Calm Calm - N/A   Clear
1:55 AM 69.8 °F - 66.2 °F 88% 30.05 in 7.0 mi Calm Calm - N/A   Clear
2:15 AM 69.8 °F - 64.4 °F 83% 30.05 in 7.0 mi Calm Calm - N/A   Mostly Cloudy
2:35 AM 69.8 °F - 68.0 °F 94% 30.05 in 7.0 mi Calm Calm - N/A   Overcast
2:55 AM 69.8 °F - 68.0 °F 94% 30.05 in 7.0 mi Calm Calm - N/A   Overcast
3:15 AM 69.8 °F - 68.0 °F 94% 30.04 in 5.0 mi Calm Calm - N/A   Overcast
3:35 AM 69.8 °F - 68.0 °F 94% 30.05 in 4.0 mi Calm Calm - N/A   Overcast
3:55 AM 69.8 °F - 68.0 °F 94% 30.05 in 5.0 mi Calm Calm - N/A   Overcast
4:15 AM 69.8 °F - 68.0 °F 94% 30.05 in 5.0 mi Calm Calm - N/A   Overcast
4:35 AM 69.8 °F - 68.0 °F 94% 30.05 in 4.0 mi Calm Calm - N/A   Overcast
4:55 AM 69.8 °F - 68.0 °F 94% 30.05 in 1.8 mi Calm Calm - N/A   Overcast
5:16 AM 69.8 °F - 68.0 °F 94% 30.06 in 1.2 mi Calm Calm - N/A   Overcast
5:36 AM 69.8 °F - 68.0 °F 94% 30.06 in 1.0 mi Calm Calm - N/A   Overcast
5:56 AM 69.8 °F - 68.0 °F 94% 30.07 in 0.5 mi Calm Calm - N/A   Overcast
6:16 AM 69.8 °F - 68.0 °F 94% 30.07 in 0.5 mi Calm Calm - N/A   Overcast
6:36 AM 69.8 °F - 68.0 °F 94% 30.08 in 0.2 mi Calm Calm - N/A   Overcast
6:56 AM 69.8 °F - 68.0 °F 94% 30.09 in 1.8 mi Calm Calm - N/A   Overcast
7:16 AM 69.8 °F - 68.0 °F 94% 30.09 in 5.0 mi Calm Calm - N/A   Overcast
7:36 AM 69.8 °F - 68.0 °F 94% 30.10 in 5.0 mi Calm Calm - N/A   Overcast
7:56 AM 69.8 °F - 68.0 °F 94% 30.10 in 5.0 mi Calm Calm - N/A   Overcast
8:16 AM 69.8 °F - 68.0 °F 94% 30.11 in 4.0 mi Calm Calm - N/A   Overcast
8:36 AM 71.6 °F - 68.0 °F 88% 30.11 in 3.0 mi Calm Calm - N/A   Overcast
8:56 AM 71.6 °F - 69.8 °F 94% 30.11 in 4.0 mi Calm Calm - N/A   Overcast
9:16 AM 73.4 °F - 69.8 °F 88% 30.11 in 4.0 mi Calm Calm - N/A   Overcast
9:36 AM 77.0 °F - 69.8 °F 78% 30.11 in 5.0 mi Calm Calm - N/A   Mostly Cloudy
9:56 AM 78.8 °F - 69.8 °F 74% 30.11 in 7.0 mi SSW 3.5 mph - N/A   Clear
10:16 AM 80.6 °F 83.9 °F 69.8 °F 70% 30.11 in 7.0 mi ESE 3.5 mph - N/A   Clear
10:36 AM 84.2 °F 88.4 °F 69.8 °F 62% 30.11 in 10.0 mi Calm Calm - N/A   Clear
10:56 AM 86.0 °F 90.4 °F 69.8 °F 58% 30.10 in 10.0 mi Calm Calm - N/A   Clear
11:16 AM 86.0 °F 90.4 °F 69.8 °F 58% 30.10 in 10.0 mi Calm Calm - N/A   Clear
11:36 AM 86.0 °F 90.4 °F 69.8 °F 58% 30.09 in 10.0 mi ESE 4.6 mph - N/A   Scattered Clouds
11:56 AM 86.0 °F 89.4 °F 68.0 °F 55% 30.08 in 10.0 mi Calm Calm - N/A   Scattered Clouds
12:16 PM 86.0 °F 90.4 °F 69.8 °F 58% 30.09 in 10.0 mi Calm Calm - N/A   Mostly Cloudy
12:36 PM 86.0 °F 89.4 °F 68.0 °F 55% 30.09 in 10.0 mi Calm Calm - N/A   Scattered Clouds
1:16 PM 87.8 °F 89.4 °F 64.4 °F 46% 30.07 in 10.0 mi SSE 3.5 mph - N/A   Scattered Clouds
1:37 PM 87.8 °F 89.4 °F 64.4 °F 46% 30.07 in 10.0 mi SSW 3.5 mph - N/A   Scattered Clouds
1:57 PM 87.8 °F 89.4 °F 64.4 °F 46% 30.07 in 10.0 mi SW 5.8 mph - N/A   Scattered Clouds
2:17 PM 87.8 °F 89.4 °F 64.4 °F 46% 30.06 in 10.0 mi SSW 6.9 mph - N/A   Clear
2:37 PM 89.6 °F 90.1 °F 62.6 °F 40% 30.06 in 10.0 mi SSW 8.1 mph - N/A   Clear
2:57 PM 89.6 °F 90.1 °F 62.6 °F 40% 30.05 in 10.0 mi SSW 9.2 mph - N/A   Clear
3:17 PM 87.8 °F 88.5 °F 62.6 °F 43% 30.05 in 10.0 mi SW 8.1 mph - N/A   Clear
3:37 PM 87.8 °F 88.5 °F 62.6 °F 43% 30.05 in 10.0 mi WSW 8.1 mph - N/A   Clear
3:57 PM 86.0 °F 86.6 °F 62.6 °F 45% 30.05 in 10.0 mi West 5.8 mph - N/A   Clear
4:17 PM 86.0 °F 86.6 °F 62.6 °F 45% 30.05 in 10.0 mi West 9.2 mph 17.3 mph N/A   Clear
4:37 PM 82.4 °F 83.4 °F 62.6 °F 51% 30.06 in 10.0 mi West 10.4 mph - N/A   Scattered Clouds
4:57 PM 82.4 °F 83.4 °F 62.6 °F 51% 30.06 in 10.0 mi West 13.8 mph - N/A   Scattered Clouds
5:17 PM 80.6 °F 81.8 °F 62.6 °F 54% 30.07 in 10.0 mi West 9.2 mph 19.6 mph N/A   Clear
5:37 PM 80.6 °F 81.8 °F 62.6 °F 54% 30.07 in 10.0 mi West 4.6 mph - N/A   Scattered Clouds
5:57 PM 80.6 °F 81.8 °F 62.6 °F 54% 30.06 in 10.0 mi West 8.1 mph - N/A   Scattered Clouds
6:17 PM 78.8 °F - 62.6 °F 57% 30.06 in 10.0 mi WSW 3.5 mph - N/A   Scattered Clouds
6:37 PM 78.8 °F - 64.4 °F 61% 30.05 in 10.0 mi SSW 5.8 mph - N/A   Scattered Clouds
6:57 PM 77.0 °F - 64.4 °F 65% 30.05 in 10.0 mi SSW 5.8 mph - N/A   Clear
7:17 PM 77.0 °F - 64.4 °F 65% 30.05 in 10.0 mi SSW 4.6 mph - N/A   Scattered Clouds
7:37 PM 77.0 °F - 66.2 °F 69% 30.05 in 10.0 mi South 3.5 mph - N/A   Scattered Clouds
7:57 PM 77.0 °F - 66.2 °F 69% 30.05 in 10.0 mi South 6.9 mph - N/A   Scattered Clouds
8:17 PM 75.2 °F - 66.2 °F 73% 30.06 in 10.0 mi South 3.5 mph - N/A   Scattered Clouds
8:37 PM 73.4 °F - 66.2 °F 78% 30.06 in 10.0 mi Calm Calm - N/A   Scattered Clouds
8:57 PM 73.4 °F - 66.2 °F 78% 30.06 in 10.0 mi Calm Calm - N/A   Scattered Clouds
9:17 PM 71.6 °F - 66.2 °F 83% 30.07 in 10.0 mi SSE 4.6 mph - N/A   Clear
9:37 PM 71.6 °F - 66.2 °F 83% 30.07 in 10.0 mi South 5.8 mph - N/A   Clear
9:57 PM 71.6 °F - 66.2 °F 83% 30.08 in 10.0 mi SE 3.5 mph - N/A   Clear
10:17 PM 71.6 °F - 66.2 °F 83% 30.08 in 10.0 mi SSW 3.5 mph - N/A   Clear
10:38 PM 69.8 °F - 64.4 °F 83% 30.08 in 10.0 mi Calm Calm - N/A   Clear
10:58 PM 69.8 °F - 64.4 °F 83% 30.08 in 10.0 mi Calm Calm - N/A   Clear
11:18 PM 68.0 °F - 64.4 °F 88% 30.08 in 10.0 mi Calm Calm - N/A   Clear
11:38 PM 68.0 °F - 64.4 °F 88% 30.08 in 10.0 mi Calm Calm - N/A   Clear
11:58 PM 68.0 °F - 64.4 °F 88% 30.08 in 7.0 mi Calm Calm - N/A   Clear